Location: Acts Church of Fort Worth
(32.6786°N, 97.2668°W)
Time: 21:48:11
(UTC+00:00)

Cosmos 1707 Rocket - Pass Details

Date: 18 January 2026
Orbit: 598 x 624 km, 82.5° (Epoch: 10 February)

Event Time Altitude Azimuth Distance (km) Brightness Sun altitude
Rises 00:57:10 0° 171° (S) 2,847 7.0 -14.5°
Reaches altitude 10° 00:59:27 10° 164° (SSE) 1,944 6.1 -15.0°
Maximum altitude 01:03:32 44° 92° (E) 836 3.8 -15.8°
Enters shadow 01:06:20 19° 28° (NNE) 1,469 5.1 -16.4°
